Preview of NWS' New Version of Forecast
This preview is not operational and should not be used for support decisions.

Regional Weather Roundup (RWR)

Issued by National Weather Service (NWS)

                            
000
ASUS44 KJAN 241810
RWRMS 

MISSISSIPPI HOURLY WEATHER ROUNDUP
NATIONAL WEATHER SERVICE JACKSON MS
100 PM CDT MON JUN 24 2019

NOTE: "FAIR: INDICATES FEW OR NO CLOUDS BELOW 12,000 FEET WITH NO
SIGNIFICANT WEATHER AND/OR OBSTRUCTIONS TO VISIBILITY.

MSZ001>002-007>008-010>013-018>021-025>028-034>036-241900-
NORTHWEST MISSISSIPPI
  
CITY           SKY/WX    TMP DP  RH WIND       PRES   REMARKS
BATESVILLE     FAIR      81  68  65 W9G16     29.91S                  
CLARKSDALE     SUNNY     84  72  65 W7G16     29.91S                  
CLEVELAND      FAIR      79  69  70 W12       29.92F                  
GREENWOOD      FAIR      82  68  62 SW10G16   29.92S                  
6HR MIN TEMP:  69; 6HR MAX TEMP:  82;                                

GREENVILLE       N/A    N/A N/A N/A MISG      29.92S                  
OLIVE BRANCH   PTSUNNY   81  66  61 W12G18    29.90S                  
OXFORD         FAIR      81  66  61 W9G20     29.93S                  
TUNICA           N/A     79  68  69 SW6       29.91S                  
WINONA         FAIR      82  67  59 SW7       29.92F                  
$$

MSZ003>006-009-014>017-022>024-029>033-037>039-241900-
NORTHEAST MISSISSIPPI
  
CITY           SKY/WX    TMP DP  RH WIND       PRES   REMARKS
ABERDEEN       FAIR      84  84 100 SW10G18   29.92R FOG     HX 104   
COLUMBUS AFB   PTSUNNY   85  71  63 W9        29.90R HX  90           
6HR MIN TEMP:  73; 6HR MAX TEMP:  86; 6HR PCP:  0.16;                

CORINTH        FAIR      81  68  65 W8        29.89S                  
GOLDN TRIANGLE FAIR      85  72  65 W9        29.92R HX  91           
STARKVILLE     FAIR      82  68  61 W7        29.93R                  
TUPELO         FAIR      84  68  58 W13       29.91R                  
6HR MIN TEMP:  73; 6HR MAX TEMP:  84; 6HR PCP:  0.11;                

$$

MSZ040-058-241900-
CENTRAL MISSISSIPPI
  
CITY           SKY/WX    TMP DP  RH WIND       PRES   REMARKS
JACKSON INTL   PTSUNNY   81  67  62 S10G18    29.93S                  
6HR MIN TEMP:  70; 6HR MAX TEMP:  82; 6HR PCP: TRACE;                

JACKSON HAWKNS FAIR      81  69  67 NW13G22   29.97R                  
6HR MIN TEMP:  70; 6HR MAX TEMP:  82; 6HR PCP: TRACE;                

MADISON        FAIR      79  68  69 NW8G18    29.96R                  
MERIDIAN KEY   PTSUNNY   83  71  67 SW9       29.94S                  
6HR MIN TEMP:  76; 6HR MAX TEMP:  83; 6HR PCP:  0.02;                

MERIDIAN NAS   CLOUDY    82  69  64 SW7       29.93S                  
6HR MIN TEMP:  77; 6HR MAX TEMP:  85; 6HR PCP: TRACE;                

RAYMOND        FAIR      81  73  78 S6G13     29.93R                  
VICKSBURG VKS  CLEAR     81  68  65 SW5       29.95R                  
$$

MSZ059>079-241900-
SOUTH MISSISSIPPI
  
CITY           SKY/WX    TMP DP  RH WIND       PRES   REMARKS
HATTIESBURG    FAIR      81  70  69 S9        30.00S                  
6HR MIN TEMP:  75; 6HR MAX TEMP:  82;                                

LAUREL         CLEAR     80  71  73 S10       29.97S                  
MCCOMB         PTSUNNY   79  69  71 S9        29.99F                  
6HR MIN TEMP:  69; 6HR MAX TEMP:  79; 6HR PCP: TRACE;                

NATCHEZ        NOT AVBL                                               
PINE BELT      LGT RAIN  79  72  79 S6        30.00S                  
6HR MIN TEMP:  72; 6HR MAX TEMP:  79; 6HR PCP: TRACE;                

$$

MSZ080>082-241900-
COASTAL MISSISSIPPI
  
CITY           SKY/WX    TMP DP  RH WIND       PRES   REMARKS
BAY ST LOUIS   MOSUNNY   84  70  61 W5        30.00F                  
BILOXI         FAIR      88  74  61 SW9       30.00S HX  96           
6HR MIN TEMP:  74; 6HR MAX TEMP:  90; 6HR PCP:  0.11;                

PASCAGOULA     FAIR      90  73  57 VRB5      29.99F HX  98           
6HR MIN TEMP:  77; 6HR MAX TEMP:  90; 6HR PCP:  0.10;                

GULFPORT       FAIR      89  65  44 NW3       29.99F HX  91           
6HR MIN TEMP:  75; 6HR MAX TEMP:  89; 6HR PCP:  0.03;                

$$

LAZ007>009-015>016-023>026-241900-
NORTHEAST LOUISIANA
  
CITY           SKY/WX    TMP DP  RH WIND       PRES   REMARKS
BASTROP        FAIR      81  67  62 W6        29.95S                  
TALLULAH/VBURG FAIR      79  69  71 CALM      29.94R                  
6HR MIN TEMP:  69; 6HR MAX TEMP:  81; 6HR PCP: TRACE;                

VIDALIA        FAIR      80  69  69 S9        29.91F                  
$$